Location: Anankanda
(14.7841°N, 3.0348°W)
Time: 01:46:52
(UTC+00:00)

Centaur D-1AR AC-48 - Pass Details

Date: 17 January 2021
Orbit: 617 x 36172 km, 21.9° (Epoch: 06 March)

Event Time Altitude Azimuth Distance (km) Brightness Sun altitude
Rises 19:55:33 0° 272° (W) 7,738 8.3 -26.6°
Reaches altitude 10° 20:03:03 10° 278° (W) 4,414 6.7 -28.3°
Enters shadow 20:10:23 40° 333° (NNW) 1,253 3.1 -30.0°
